Wetterdaten: Woche 09.02.15 - 15.02.15 (KW7)
Datum Zeit Temp. A. Feuchte A. Luftdruck Regen Wind Richtung Sonnenschein ET UV Solar Taupunkt Windchill Windben Empfang
09.02.2015 00:00 -3,5 C 61 % 1026,5 hPa 0,0 l/m 1,5 km/h (1 Bft) W-SW 0,00 h 0,000 mm 0,0 UV-I 0 W/m -9,9 C -3,5 C 4,0 km/h (1 Bft) 0,00 %
09.02.2015 01:00 -3,3 C 58 % 1026,6 hPa 0,0 l/m 2,2 km/h (1 Bft) W-SW 0,00 h 0,000 mm 0,0 UV-I 0 W/m -10,4 C -3,3 C 4,0 km/h (1 Bft) 0,00 %
09.02.2015 02:00 -2,8 C 50 % 1026,9 hPa 0,0 l/m 4,3 km/h (1 Bft) W-SW 0,00 h 0,000 mm 0,0 UV-I 0 W/m -11,6 C -3,5 C 7,9 km/h (2 Bft) 0,00 %
09.02.2015 03:00 -2,6 C 49 % 1026,3 hPa 0,0 l/m 6,6 km/h (2 Bft) W-SW 0,00 h 0,000 mm 0,0 UV-I 0 W/m -11,8 C -4,5 C 9,9 km/h (2 Bft) 0,00 %
09.02.2015 04:00 -2,6 C 48 % 1026,0 hPa 0,0 l/m 4,8 km/h (1 Bft) W-SW 0,00 h 0,000 mm 0,0 UV-I 0 W/m -12,1 C -3,3 C 7,9 km/h (2 Bft) 0,00 %
09.02.2015 05:00 -2,8 C 49 % 1025,9 hPa 0,0 l/m 5,6 km/h (1 Bft) O 0,00 h 0,000 mm 0,0 UV-I 0 W/m -12,0 C -3,8 C 8,9 km/h (2 Bft) 0,00 %
09.02.2015 06:00 -3,2 C 51 % 1025,6 hPa 0,0 l/m 1,4 km/h (1 Bft) S 0,00 h 0,000 mm 0,0 UV-I 0 W/m -11,8 C -3,2 C 4,0 km/h (1 Bft) 0,00 %
09.02.2015 07:00 -2,8 C 52 % 1025,3 hPa 0,0 l/m 10,6 km/h (2 Bft) W-SW 0,00 h 0,000 mm 0,0 UV-I 2 W/m -11,4 C -7,1 C 17,9 km/h (3 Bft) 0,00 %
09.02.2015 08:00 -3,6 C 70 % 1025,2 hPa 0,0 l/m 7,1 km/h (2 Bft) W-SW 0,00 h 0,000 mm 1,0 UV-I 27 W/m -8,3 C -5,3 C 12,9 km/h (3 Bft) 0,00 %
09.02.2015 09:00 -3,6 C 76 % 1025,0 hPa 0,0 l/m 8,8 km/h (2 Bft) W-NW 0,00 h 0,000 mm 1,0 UV-I 82 W/m -7,2 C -7,6 C 11,9 km/h (2 Bft) 0,00 %
09.02.2015 10:00 -3,2 C 75 % 1024,8 hPa 0,0 l/m 9,3 km/h (2 Bft) W-SW 0,00 h 0,000 mm 1,0 UV-I 119 W/m -6,9 C -6,8 C 14,0 km/h (3 Bft) 0,00 %
09.02.2015 11:00 -2,9 C 75 % 1024,5 hPa 0,0 l/m 6,6 km/h (2 Bft) W-SW 0,00 h 0,000 mm 1,0 UV-I 93 W/m -6,7 C -3,8 C 11,9 km/h (2 Bft) 0,00 %
09.02.2015 12:00 -2,5 C 74 % 1024,3 hPa 0,0 l/m 4,6 km/h (1 Bft) W-SW 0,00 h 0,000 mm 1,0 UV-I 98 W/m -6,5 C -3,2 C 7,9 km/h (2 Bft) 0,00 %
09.02.2015 13:00 -2,1 C 75 % 1023,7 hPa 0,0 l/m 10,1 km/h (2 Bft) W-SW 0,00 h 0,000 mm 1,0 UV-I 76 W/m -5,9 C -5,4 C 15,9 km/h (3 Bft) 0,00 %
09.02.2015 14:00 -1,5 C 72 % 1023,5 hPa 0,0 l/m 11,2 km/h (2 Bft) S 0,00 h 0,000 mm 1,0 UV-I 58 W/m -5,9 C -6,4 C 16,9 km/h (3 Bft) 0,00 %
09.02.2015 15:00 -0,8 C 70 % 1023,5 hPa 0,0 l/m 14,6 km/h (3 Bft) W-SW 0,00 h 0,000 mm 1,0 UV-I 47 W/m -5,5 C -6,7 C 20,9 km/h (4 Bft) 0,00 %
09.02.2015 16:00 -0,4 C 70 % 1024,1 hPa 0,0 l/m 10,1 km/h (2 Bft) W-SW 0,00 h 0,000 mm 0,0 UV-I 11 W/m -5,2 C -3,9 C 13,8 km/h (3 Bft) 0,00 %
09.02.2015 17:00 -0,1 C 70 % 1024,4 hPa 0,0 l/m 9,7 km/h (2 Bft) W-SW 0,00 h 0,000 mm 0,0 UV-I 0 W/m -4,9 C -2,9 C 14,9 km/h (3 Bft) 0,00 %
09.02.2015 18:00 0,3 C 68 % 1025,0 hPa 0,0 l/m 10,0 km/h (2 Bft) SW 0,00 h 0,000 mm 0,0 UV-I 0 W/m -4,9 C -3,4 C 13,9 km/h (3 Bft) 0,00 %
09.02.2015 19:00 0,4 C 70 % 1026,0 hPa 0,0 l/m 6,5 km/h (2 Bft) W-SW 0,00 h 0,000 mm 0,0 UV-I 0 W/m -4,4 C -1,1 C 14,0 km/h (3 Bft) 0,00 %
09.02.2015 20:00 0,5 C 68 % 1026,4 hPa 0,0 l/m 6,7 km/h (2 Bft) S 0,00 h 0,000 mm 0,0 UV-I 0 W/m -4,6 C -0,8 C 12,9 km/h (3 Bft) 0,00 %
09.02.2015 21:00 0,8 C 65 % 1026,6 hPa 0,0 l/m 8,7 km/h (2 Bft) S 0,00 h 0,000 mm 0,0 UV-I 0 W/m -4,9 C -1,8 C 12,9 km/h (3 Bft) 0,00 %
09.02.2015 22:00 1,0 C 65 % 1026,8 hPa 0,0 l/m 3,7 km/h (1 Bft) W-SW 0,00 h 0,000 mm 0,0 UV-I 0 W/m -4,8 C 0,9 C 7,9 km/h (2 Bft) 0,00 %
09.02.2015 23:00 1,1 C 66 % 1027,0 hPa 0,0 l/m 6,2 km/h (2 Bft) W-SW 0,00 h 0,000 mm 0,0 UV-I 0 W/m -4,6 C 0,5 C 9,9 km/h (2 Bft) 0,00 %
10.02.2015 00:00 0,9 C 69 % 1027,2 hPa 0,0 l/m 3,7 km/h (1 Bft) W-SW 0,00 h 0,000 mm 0,0 UV-I 0 W/m -4,2 C 0,5 C 6,9 km/h (2 Bft) 0,00 %
10.02.2015 01:00 0,9 C 69 % 1027,1 hPa 0,0 l/m 1,2 km/h (1 Bft) S-SO 0,00 h 0,000 mm 0,0 UV-I 0 W/m -4,1 C 0,9 C 4,0 km/h (1 Bft) 0,00 %
10.02.2015 02:00 1,1 C 68 % 1027,1 hPa 0,0 l/m 3,2 km/h (1 Bft) W-SW 0,00 h 0,000 mm 0,0 UV-I 0 W/m -4,1 C 1,1 C 6,9 km/h (2 Bft) 0,00 %
10.02.2015 03:00 1,2 C 68 % 1027,1 hPa 0,0 l/m 5,0 km/h (1 Bft) W-SW 0,00 h 0,000 mm 0,0 UV-I 0 W/m -4,1 C 0,4 C 7,9 km/h (2 Bft) 0,00 %
10.02.2015 04:00 1,2 C 69 % 1027,6 hPa 0,0 l/m 5,5 km/h (1 Bft) W-SW 0,00 h 0,000 mm 0,0 UV-I 0 W/m -3,9 C 0,4 C 8,9 km/h (2 Bft) 0,00 %
10.02.2015 05:00 1,0 C 70 % 1028,0 hPa 0,0 l/m 1,7 km/h (1 Bft) W-SW 0,00 h 0,000 mm 0,0 UV-I 0 W/m -3,9 C 1,0 C 3,0 km/h (1 Bft) 0,00 %
10.02.2015 06:00 1,1 C 70 % 1028,3 hPa 0,0 l/m 3,6 km/h (1 Bft) W-SW 0,00 h 0,000 mm 0,0 UV-I 0 W/m -3,7 C 1,1 C 7,9 km/h (2 Bft) 0,00 %
10.02.2015 07:00 1,1 C 72 % 1028,9 hPa 0,0 l/m 2,1 km/h (1 Bft) S-SW 0,00 h 0,000 mm 0,0 UV-I 3 W/m -3,3 C 1,1 C 4,9 km/h (1 Bft) 0,00 %
10.02.2015 08:00 1,2 C 72 % 1029,6 hPa 0,0 l/m 0,4 km/h (0 Bft) N 0,00 h 0,000 mm 1,0 UV-I 34 W/m -3,3 C 1,2 C 3,0 km/h (1 Bft) 0,00 %
10.02.2015 09:00 1,9 C 68 % 1029,5 hPa 0,0 l/m 0,3 km/h (0 Bft) N 0,00 h 0,000 mm 1,0 UV-I 110 W/m -3,3 C 1,9 C 2,0 km/h (1 Bft) 0,00 %
10.02.2015 10:00 2,6 C 68 % 1029,4 hPa 0,0 l/m 2,2 km/h (1 Bft) W-SW 0,00 h 0,000 mm 1,7 UV-I 166 W/m -2,8 C 2,6 C 5,0 km/h (1 Bft) 0,00 %
10.02.2015 11:00 3,8 C 63 % 1028,7 hPa 0,0 l/m 2,4 km/h (1 Bft) W-SW 0,75 h 0,000 mm 2,7 UV-I 252 W/m -2,6 C 3,8 C 4,9 km/h (1 Bft) 0,00 %
10.02.2015 12:00 5,2 C 59 % 1028,3 hPa 0,0 l/m 2,0 km/h (1 Bft) SW 0,50 h 0,000 mm 2,3 UV-I 241 W/m -2,1 C 5,2 C 4,0 km/h (1 Bft) 0,00 %
10.02.2015 13:00 4,8 C 60 % 1028,3 hPa 0,0 l/m 0,4 km/h (0 Bft) N 0,25 h 0,000 mm 2,0 UV-I 157 W/m -2,2 C 4,8 C 2,0 km/h (1 Bft) 0,00 %
10.02.2015 14:00 4,9 C 60 % 1028,5 hPa 0,0 l/m 3,2 km/h (1 Bft) W-SW 0,00 h 0,000 mm 1,7 UV-I 190 W/m -2,2 C 4,9 C 4,9 km/h (1 Bft) 0,00 %
10.02.2015 15:00 4,0 C 63 % 1028,6 hPa 0,0 l/m 0,9 km/h (0 Bft) SW 0,25 h 0,000 mm 1,0 UV-I 119 W/m -2,5 C 4,0 C 3,0 km/h (1 Bft) 0,00 %
10.02.2015 16:00 2,8 C 70 % 1029,1 hPa 0,0 l/m 0,4 km/h (0 Bft) W-SW 0,00 h 0,000 mm 1,0 UV-I 25 W/m -2,2 C 2,8 C 1,0 km/h (0 Bft) 0,00 %
10.02.2015 17:00 1,8 C 70 % 1029,8 hPa 0,0 l/m 0,0 km/h (0 Bft) N 0,00 h 0,000 mm 0,0 UV-I 0 W/m -3,1 C 1,8 C 0,0 km/h (0 Bft) 0,00 %
10.02.2015 18:00 1,3 C 72 % 1030,3 hPa 0,0 l/m 0,3 km/h (0 Bft) N 0,00 h 0,000 mm 0,0 UV-I 0 W/m -3,2 C 1,3 C 3,0 km/h (1 Bft) 0,00 %
10.02.2015 19:00 0,6 C 75 % 1030,5 hPa 0,0 l/m 0,0 km/h (0 Bft) N 0,00 h 0,000 mm 0,0 UV-I 0 W/m -3,4 C 0,6 C 0,0 km/h (0 Bft) 0,00 %
10.02.2015 20:00 -0,4 C 80 % 1031,0 hPa 0,0 l/m 0,0 km/h (0 Bft) N 0,00 h 0,000 mm 0,0 UV-I 0 W/m -3,4 C -0,4 C 0,0 km/h (0 Bft) 0,00 %
10.02.2015 21:00 -1,1 C 82 % 1031,0 hPa 0,0 l/m 0,0 km/h (0 Bft) N 0,00 h 0,000 mm 0,0 UV-I 0 W/m -3,9 C -1,1 C 0,0 km/h (0 Bft) 0,00 %
10.02.2015 22:00 -1,6 C 83 % 1031,0 hPa 0,0 l/m 0,0 km/h (0 Bft) N 0,00 h 0,000 mm 0,0 UV-I 0 W/m -4,1 C -1,6 C 0,0 km/h (0 Bft) 0,00 %
10.02.2015 23:00 -1,9 C 84 % 1031,0 hPa 0,0 l/m 0,0 km/h (0 Bft) N 0,00 h 0,000 mm 0,0 UV-I 0 W/m -4,3 C -1,9 C 0,0 km/h (0 Bft) 0,00 %
11.02.2015 00:00 -1,8 C 84 % 1030,4 hPa 0,0 l/m 0,0 km/h (0 Bft) N 0,00 h 0,000 mm 0,0 UV-I 0 W/m -4,2 C -1,8 C 0,0 km/h (0 Bft) 0,00 %
11.02.2015 01:00 -1,5 C 83 % 1029,8 hPa 0,0 l/m 0,0 km/h (0 Bft) N 0,00 h 0,000 mm 0,0 UV-I 0 W/m -3,9 C -1,5 C 0,0 km/h (0 Bft) 0,00 %
11.02.2015 02:00 -1,1 C 83 % 1029,6 hPa 0,0 l/m 0,0 km/h (0 Bft) N 0,00 h 0,000 mm 0,0 UV-I 0 W/m -3,7 C -1,1 C 0,0 km/h (0 Bft) 0,00 %
11.02.2015 03:00 -0,8 C 82 % 1029,4 hPa 0,0 l/m 0,0 km/h (0 Bft) N 0,00 h 0,000 mm 0,0 UV-I 0 W/m -3,5 C -0,8 C 0,0 km/h (0 Bft) 0,00 %
11.02.2015 04:00 -0,5 C 80 % 1029,2 hPa 0,0 l/m 0,0 km/h (0 Bft) N 0,00 h 0,000 mm 0,0 UV-I 0 W/m -3,4 C -0,5 C 0,0 km/h (0 Bft) 0,00 %
11.02.2015 05:00 -0,4 C 80 % 1029,0 hPa 0,0 l/m 0,0 km/h (0 Bft) N 0,00 h 0,000 mm 0,0 UV-I 0 W/m -3,4 C -0,4 C 0,0 km/h (0 Bft) 0,00 %
11.02.2015 06:00 -0,3 C 79 % 1028,8 hPa 0,0 l/m 0,0 km/h (0 Bft) N 0,00 h 0,000 mm 0,0 UV-I 0 W/m -3,5 C -0,3 C 0,0 km/h (0 Bft) 0,00 %
11.02.2015 07:00 -0,1 C 77 % 1028,8 hPa 0,0 l/m 0,0 km/h (0 Bft) N 0,00 h 0,000 mm 0,0 UV-I 7 W/m -3,7 C -0,1 C 0,0 km/h (0 Bft) 0,00 %
11.02.2015 08:00 0,6 C 72 % 1028,9 hPa 0,0 l/m 0,0 km/h (0 Bft) N 0,00 h 0,000 mm 1,0 UV-I 44 W/m -3,9 C 0,6 C 0,0 km/h (0 Bft) 0,00 %
11.02.2015 09:00 1,1 C 70 % 1028,7 hPa 0,0 l/m 0,2 km/h (0 Bft) N 0,00 h 0,000 mm 1,0 UV-I 89 W/m -3,7 C 1,1 C 1,0 km/h (0 Bft) 0,00 %
11.02.2015 10:00 1,4 C 68 % 1028,4 hPa 0,0 l/m 0,0 km/h (0 Bft) N 0,00 h 0,000 mm 1,3 UV-I 128 W/m -3,8 C 1,4 C 0,0 km/h (0 Bft) 0,00 %
11.02.2015 11:00 1,4 C 68 % 1028,2 hPa 0,0 l/m 0,4 km/h (0 Bft) O 0,00 h 0,000 mm 2,0 UV-I 149 W/m -3,8 C 1,4 C 1,0 km/h (0 Bft) 0,00 %
11.02.2015 12:00 1,5 C 68 % 1027,7 hPa 0,0 l/m 1,5 km/h (1 Bft) O-SO 0,00 h 0,000 mm 2,0 UV-I 159 W/m -3,8 C 1,5 C 4,0 km/h (1 Bft) 0,00 %
11.02.2015 13:00 1,5 C 68 % 1027,3 hPa 0,0 l/m 0,1 km/h (0 Bft) O-SO 0,00 h 0,000 mm 1,7 UV-I 161 W/m -3,8 C 1,5 C 1,0 km/h (0 Bft) 0,00 %
11.02.2015 14:00 1,2 C 69 % 1026,8 hPa 0,0 l/m 1,9 km/h (1 Bft) O-SO 0,00 h 0,000 mm 1,0 UV-I 124 W/m -3,8 C 1,2 C 4,0 km/h (1 Bft) 0,00 %
11.02.2015 15:00 0,9 C 70 % 1026,4 hPa 0,0 l/m 1,8 km/h (1 Bft) O-SO 0,00 h 0,000 mm 1,0 UV-I 83 W/m -4,0 C 0,9 C 5,0 km/h (1 Bft) 0,00 %
11.02.2015 16:00 0,6 C 71 % 1026,3 hPa 0,0 l/m 1,1 km/h (1 Bft) N 0,00 h 0,000 mm 1,0 UV-I 32 W/m -4,2 C 0,6 C 2,0 km/h (1 Bft) 0,00 %
11.02.2015 17:00 0,3 C 73 % 1026,6 hPa 0,0 l/m 1,6 km/h (1 Bft) O-SO 0,00 h 0,000 mm 0,0 UV-I 0 W/m -4,1 C 0,2 C 2,0 km/h (1 Bft) 0,00 %
11.02.2015 18:00 0,2 C 73 % 1027,0 hPa 0,0 l/m 0,0 km/h (0 Bft) N 0,00 h 0,000 mm 0,0 UV-I 0 W/m -4,0 C 0,2 C 0,0 km/h (0 Bft) 0,00 %
11.02.2015 19:00 0,1 C 73 % 1026,9 hPa 0,0 l/m 1,7 km/h (1 Bft) O-SO 0,00 h 0,000 mm 0,0 UV-I 0 W/m -4,2 C 0,1 C 3,0 km/h (1 Bft) 0,00 %
11.02.2015 20:00 -0,0 C 75 % 1027,1 hPa 0,0 l/m 0,1 km/h (0 Bft) N 0,00 h 0,000 mm 0,0 UV-I 0 W/m -4,0 C -0,0 C 1,0 km/h (0 Bft) 0,00 %
11.02.2015 21:00 -0,2 C 76 % 1027,1 hPa 0,0 l/m 0,2 km/h (0 Bft) O 0,00 h 0,000 mm 0,0 UV-I 0 W/m -3,9 C -0,2 C 1,0 km/h (0 Bft) 0,00 %
11.02.2015 22:00 0,0 C 75 % 1026,9 hPa 0,0 l/m 0,4 km/h (0 Bft) N 0,00 h 0,000 mm 0,0 UV-I 0 W/m -3,9 C 0,0 C 2,0 km/h (1 Bft) 0,00 %
11.02.2015 23:00 0,0 C 75 % 1026,7 hPa 0,0 l/m 0,7 km/h (0 Bft) SO 0,00 h 0,000 mm 0,0 UV-I 0 W/m -3,9 C 0,0 C 2,0 km/h (1 Bft) 0,00 %
12.02.2015 00:00 -0,1 C 74 % 1026,4 hPa 0,0 l/m 3,3 km/h (1 Bft) O-SO 0,00 h 0,000 mm 0,0 UV-I 0 W/m -4,1 C -0,5 C 5,9 km/h (2 Bft) 0,00 %
12.02.2015 01:00 -0,2 C 75 % 1026,3 hPa 0,0 l/m 0,0 km/h (0 Bft) O-SO 0,00 h 0,000 mm 0,0 UV-I 0 W/m -4,0 C -0,2 C 0,0 km/h (0 Bft) 0,00 %
12.02.2015 02:00 -0,2 C 77 % 1025,9 hPa 0,0 l/m 3,2 km/h (1 Bft) O 0,00 h 0,000 mm 0,0 UV-I 0 W/m -3,8 C -0,2 C 5,9 km/h (2 Bft) 0,00 %
12.02.2015 03:00 -0,3 C 77 % 1025,6 hPa 0,0 l/m 4,0 km/h (1 Bft) O-SO 0,00 h 0,000 mm 0,0 UV-I 0 W/m -3,8 C -0,4 C 7,9 km/h (2 Bft) 0,00 %
12.02.2015 04:00 -0,3 C 79 % 1025,3 hPa 0,0 l/m 2,8 km/h (1 Bft) O 0,00 h 0,000 mm 0,0 UV-I 0 W/m -3,6 C -0,3 C 5,9 km/h (2 Bft) 0,00 %
12.02.2015 05:00 -0,5 C 79 % 1025,0 hPa 0,0 l/m 1,4 km/h (1 Bft) O-SO 0,00 h 0,000 mm 0,0 UV-I 0 W/m -3,7 C -0,5 C 2,0 km/h (1 Bft) 0,00 %
12.02.2015 06:00 -0,9 C 79 % 1025,2 hPa 0,0 l/m 1,5 km/h (1 Bft) O 0,00 h 0,000 mm 0,0 UV-I 0 W/m -4,0 C -0,9 C 4,0 km/h (1 Bft) 0,00 %
12.02.2015 07:00 -1,0 C 77 % 1025,4 hPa 0,0 l/m 0,0 km/h (0 Bft) N 0,00 h 0,000 mm 0,0 UV-I 1 W/m -4,5 C -1,0 C 0,0 km/h (0 Bft) 0,00 %
12.02.2015 08:00 -0,9 C 76 % 1025,6 hPa 0,0 l/m 1,3 km/h (1 Bft) O-SO 0,00 h 0,000 mm 1,0 UV-I 28 W/m -4,6 C -0,9 C 4,0 km/h (1 Bft) 0,00 %
12.02.2015 09:00 -0,6 C 75 % 1025,7 hPa 0,0 l/m 0,3 km/h (0 Bft) N 0,00 h 0,000 mm 1,0 UV-I 61 W/m -4,6 C -0,6 C 1,0 km/h (0 Bft) 0,00 %
12.02.2015 10:00 -0,3 C 74 % 1025,8 hPa 0,0 l/m 0,2 km/h (0 Bft) N 0,00 h 0,000 mm 1,0 UV-I 100 W/m -4,4 C -0,3 C 2,0 km/h (1 Bft) 0,00 %
12.02.2015 11:00 -0,1 C 73 % 1025,5 hPa 0,0 l/m 0,8 km/h (0 Bft) O-SO 0,00 h 0,000 mm 1,0 UV-I 115 W/m -4,3 C -0,1 C 2,0 km/h (1 Bft) 0,00 %
12.02.2015 12:00 0,2 C 73 % 1025,1 hPa 0,0 l/m 0,8 km/h (0 Bft) O-SO 0,00 h 0,000 mm 1,0 UV-I 128 W/m -4,0 C 0,2 C 2,0 km/h (1 Bft) 0,00 %
12.02.2015 13:00 0,2 C 73 % 1024,8 hPa 0,0 l/m 1,1 km/h (1 Bft) O 0,00 h 0,000 mm 1,0 UV-I 118 W/m -4,1 C 0,2 C 2,0 km/h (1 Bft) 0,00 %
12.02.2015 14:00 0,2 C 72 % 1024,4 hPa 0,0 l/m 0,0 km/h (0 Bft) O-SO 0,00 h 0,000 mm 1,0 UV-I 95 W/m -4,2 C 0,2 C 0,0 km/h (0 Bft) 0,00 %
12.02.2015 15:00 0,1 C 74 % 1024,4 hPa 0,0 l/m 2,5 km/h (1 Bft) SO 0,00 h 0,000 mm 1,0 UV-I 55 W/m -4,1 C 0,1 C 4,0 km/h (1 Bft) 0,00 %
12.02.2015 16:00 0,2 C 73 % 1024,2 hPa 0,0 l/m 0,2 km/h (0 Bft) N 0,00 h 0,000 mm 0,0 UV-I 23 W/m -4,1 C 0,2 C 1,0 km/h (0 Bft) 0,00 %
12.02.2015 17:00 0,0 C 74 % 1024,3 hPa 0,0 l/m 0,0 km/h (0 Bft) N 0,00 h 0,000 mm 0,0 UV-I 0 W/m -4,1 C 0,0 C 0,0 km/h (0 Bft) 0,00 %
12.02.2015 18:00 -0,1 C 75 % 1024,8 hPa 0,0 l/m 0,0 km/h (0 Bft) N 0,00 h 0,000 mm 0,0 UV-I 0 W/m -4,0 C -0,1 C 0,0 km/h (0 Bft) 0,00 %
12.02.2015 19:00 -0,4 C 76 % 1025,0 hPa 0,0 l/m 0,0 km/h (0 Bft) N 0,00 h 0,000 mm 0,0 UV-I 0 W/m -4,1 C -0,4 C 0,0 km/h (0 Bft) 0,00 %
12.02.2015 20:00 -0,6 C 78 % 1024,8 hPa 0,0 l/m 0,0 km/h (0 Bft) N 0,00 h 0,000 mm 0,0 UV-I 0 W/m -3,9 C -0,6 C 0,0 km/h (0 Bft) 0,00 %
12.02.2015 21:00 -0,6 C 79 % 1024,8 hPa 0,0 l/m 0,0 km/h (0 Bft) SO 0,00 h 0,000 mm 0,0 UV-I 0 W/m -3,7 C -0,6 C 0,0 km/h (0 Bft) 0,00 %
12.02.2015 22:00 -0,5 C 79 % 1024,7 hPa 0,0 l/m 0,6 km/h (0 Bft) N 0,00 h 0,000 mm 0,0 UV-I 0 W/m -3,6 C -0,5 C 1,0 km/h (0 Bft) 0,00 %
12.02.2015 23:00 -0,9 C 82 % 1024,6 hPa 0,0 l/m 0,0 km/h (0 Bft) N 0,00 h 0,000 mm 0,0 UV-I 0 W/m -3,6 C -0,9 C 0,0 km/h (0 Bft) 0,00 %
13.02.2015 00:00 -0,9 C 83 % 1024,4 hPa 0,0 l/m 0,0 km/h (0 Bft) N 0,00 h 0,000 mm 0,0 UV-I 0 W/m -3,5 C -0,9 C 0,0 km/h (0 Bft) 0,00 %
13.02.2015 01:00 -0,8 C 82 % 1024,2 hPa 0,0 l/m 0,0 km/h (0 Bft) N 0,00 h 0,000 mm 0,0 UV-I 0 W/m -3,5 C -0,8 C 0,0 km/h (0 Bft) 0,00 %
13.02.2015 02:00 -0,9 C 82 % 1023,9 hPa 0,0 l/m 0,0 km/h (0 Bft) N 0,00 h 0,000 mm 0,0 UV-I 0 W/m -3,6 C -0,9 C 0,0 km/h (0 Bft) 0,00 %
13.02.2015 03:00 -1,1 C 82 % 1023,5 hPa 0,0 l/m 0,0 km/h (0 Bft) N 0,00 h 0,000 mm 0,0 UV-I 0 W/m -3,8 C -1,1 C 0,0 km/h (0 Bft) 0,00 %
13.02.2015 04:00 -1,3 C 82 % 1023,5 hPa 0,0 l/m 0,2 km/h (0 Bft) N 0,00 h 0,000 mm 0,0 UV-I 0 W/m -3,9 C -1,3 C 2,0 km/h (1 Bft) 0,00 %
13.02.2015 05:00 -1,5 C 83 % 1023,2 hPa 0,0 l/m 0,8 km/h (0 Bft) O 0,00 h 0,000 mm 0,0 UV-I 0 W/m -4,1 C -1,5 C 2,0 km/h (1 Bft) 0,00 %
13.02.2015 06:00 -1,8 C 84 % 1023,1 hPa 0,0 l/m 0,0 km/h (0 Bft) O 0,00 h 0,000 mm 0,0 UV-I 0 W/m -4,2 C -1,8 C 0,0 km/h (0 Bft) 0,00 %
13.02.2015 07:00 -1,8 C 84 % 1023,3 hPa 0,0 l/m 1,2 km/h (1 Bft) O-SO 0,00 h 0,000 mm 0,0 UV-I 1 W/m -4,2 C -1,8 C 2,0 km/h (1 Bft) 0,00 %
13.02.2015 08:00 -1,8 C 84 % 1023,3 hPa 0,0 l/m 1,9 km/h (1 Bft) N 0,00 h 0,000 mm 1,0 UV-I 26 W/m -4,2 C -1,9 C 4,0 km/h (1 Bft) 0,00 %
13.02.2015 09:00 -1,7 C 84 % 1023,2 hPa 0,0 l/m 0,7 km/h (0 Bft) O 0,00 h 0,000 mm 1,0 UV-I 59 W/m -4,1 C -1,7 C 3,0 km/h (1 Bft) 0,00 %
13.02.2015 10:00 -1,5 C 82 % 1022,9 hPa 0,0 l/m 0,1 km/h (0 Bft) N 0,00 h 0,000 mm 1,0 UV-I 87 W/m -4,2 C -1,5 C 1,0 km/h (0 Bft) 0,00 %
13.02.2015 11:00 -0,9 C 78 % 1022,5 hPa 0,0 l/m 0,0 km/h (0 Bft) N 0,00 h 0,000 mm 1,0 UV-I 119 W/m -4,3 C -0,9 C 0,0 km/h (0 Bft) 0,00 %
13.02.2015 12:00 -0,7 C 77 % 1021,8 hPa 0,0 l/m 0,4 km/h (0 Bft) O-SO 0,00 h 0,000 mm 1,0 UV-I 116 W/m -4,3 C -0,7 C 2,0 km/h (1 Bft) 0,00 %
13.02.2015 13:00 -0,7 C 76 % 1021,0 hPa 0,0 l/m 0,6 km/h (0 Bft) SO 0,00 h 0,000 mm 1,0 UV-I 120 W/m -4,3 C -0,7 C 2,0 km/h (1 Bft) 0,00 %
13.02.2015 14:00 -0,9 C 77 % 1020,6 hPa 0,0 l/m 0,3 km/h (0 Bft) N 0,00 h 0,000 mm 1,0 UV-I 88 W/m -4,4 C -0,9 C 2,0 km/h (1 Bft) 0,00 %
13.02.2015 15:00 -1,0 C 79 % 1020,3 hPa 0,0 l/m 2,4 km/h (1 Bft) O-SO 0,00 h 0,000 mm 1,0 UV-I 57 W/m -4,2 C -1,0 C 5,9 km/h (2 Bft) 0,00 %
13.02.2015 16:00 -1,5 C 81 % 1020,1 hPa 0,0 l/m 2,8 km/h (1 Bft) O 0,00 h 0,000 mm 0,0 UV-I 16 W/m -4,2 C -1,5 C 5,0 km/h (1 Bft) 0,00 %
13.02.2015 17:00 -1,4 C 81 % 1019,8 hPa 0,0 l/m 2,9 km/h (1 Bft) O-SO 0,00 h 0,000 mm 0,0 UV-I 0 W/m -4,3 C -1,4 C 4,0 km/h (1 Bft) 0,00 %
13.02.2015 18:00 -1,4 C 81 % 1019,4 hPa 0,0 l/m 2,1 km/h (1 Bft) O 0,00 h 0,000 mm 0,0 UV-I 0 W/m -4,2 C -1,4 C 4,0 km/h (1 Bft) 0,00 %
13.02.2015 19:00 -1,4 C 81 % 1018,9 hPa 0,0 l/m 0,2 km/h (0 Bft) N 0,00 h 0,000 mm 0,0 UV-I 0 W/m -4,2 C -1,4 C 1,0 km/h (0 Bft) 0,00 %
13.02.2015 20:00 -1,4 C 81 % 1018,4 hPa 0,0 l/m 0,1 km/h (0 Bft) N 0,00 h 0,000 mm 0,0 UV-I 0 W/m -4,2 C -1,4 C 1,0 km/h (0 Bft) 0,00 %
13.02.2015 21:00 -1,4 C 81 % 1017,8 hPa 0,0 l/m 0,1 km/h (0 Bft) N 0,00 h 0,000 mm 0,0 UV-I 0 W/m -4,2 C -1,4 C 1,0 km/h (0 Bft) 0,00 %
13.02.2015 22:00 -1,4 C 82 % 1017,4 hPa 0,0 l/m 0,0 km/h (0 Bft) N 0,00 h 0,000 mm 0,0 UV-I 0 W/m -4,1 C -1,4 C 0,0 km/h (0 Bft) 0,00 %
13.02.2015 23:00 -1,5 C 82 % 1017,0 hPa 0,0 l/m 0,2 km/h (0 Bft) N 0,00 h 0,000 mm 0,0 UV-I 0 W/m -4,2 C -1,5 C 1,3 km/h (1 Bft) 0,00 %
14.02.2015 00:00 -1,4 C 82 % 1017,0 hPa 0,0 l/m 0,0 km/h (0 Bft) O 0,00 h 0,000 mm 0,0 UV-I 0 W/m -4,0 C -1,4 C 0,0 km/h (0 Bft) 0,00 %
14.02.2015 01:00 -1,5 C 81 % 1016,3 hPa 0,0 l/m 2,3 km/h (1 Bft) O-SO 0,00 h 0,000 mm 0,0 UV-I 0 W/m -4,2 C -1,5 C 4,9 km/h (1 Bft) 0,00 %
14.02.2015 02:00 -1,6 C 82 % 1016,2 hPa 0,0 l/m 2,2 km/h (1 Bft) O-SO 0,00 h 0,000 mm 0,0 UV-I 0 W/m -4,2 C -1,6 C 4,0 km/h (1 Bft) 0,00 %
14.02.2015 03:00 -1,7 C 82 % 1015,8 hPa 0,0 l/m 0,1 km/h (0 Bft) N 0,00 h 0,000 mm 0,0 UV-I 0 W/m -4,4 C -1,7 C 1,0 km/h (0 Bft) 0,00 %
14.02.2015 04:00 -1,9 C 82 % 1015,8 hPa 0,0 l/m 0,0 km/h (0 Bft) N 0,00 h 0,000 mm 0,0 UV-I 0 W/m -4,6 C -1,9 C 0,0 km/h (0 Bft) 0,00 %
14.02.2015 05:00 -2,1 C 83 % 1015,9 hPa 0,0 l/m 0,0 km/h (0 Bft) N 0,00 h 0,000 mm 0,0 UV-I 0 W/m -4,6 C -2,1 C 0,0 km/h (0 Bft) 0,00 %
14.02.2015 06:00 -2,3 C 83 % 1015,9 hPa 0,0 l/m 0,0 km/h (0 Bft) N 0,00 h 0,000 mm 0,0 UV-I 0 W/m -4,7 C -2,3 C 0,0 km/h (0 Bft) 0,00 %
14.02.2015 07:00 -2,7 C 79 % 1016,0 hPa 0,0 l/m 0,0 km/h (0 Bft) N 0,00 h 0,000 mm 0,0 UV-I 4 W/m -5,8 C -2,7 C 0,0 km/h (0 Bft) 0,00 %
14.02.2015 08:00 -2,6 C 81 % 1016,0 hPa 0,0 l/m 0,6 km/h (0 Bft) SO 0,00 h 0,000 mm 1,0 UV-I 35 W/m -5,3 C -2,6 C 2,0 km/h (1 Bft) 0,00 %
14.02.2015 09:00 -2,3 C 82 % 1015,6 hPa 0,0 l/m 3,2 km/h (1 Bft) O-SO 0,00 h 0,000 mm 1,0 UV-I 66 W/m -4,9 C -2,8 C 4,9 km/h (1 Bft) 0,00 %
14.02.2015 10:00 -2,1 C 82 % 1015,1 hPa 0,0 l/m 1,8 km/h (1 Bft) O-SO 0,00 h 0,000 mm 1,0 UV-I 87 W/m -4,8 C -2,1 C 3,0 km/h (1 Bft) 0,00 %
14.02.2015 11:00 -2,3 C 82 % 1014,6 hPa 0,0 l/m 4,0 km/h (1 Bft) O 0,00 h 0,000 mm 1,0 UV-I 130 W/m -5,0 C -2,7 C 6,9 km/h (2 Bft) 0,00 %
14.02.2015 12:00 -2,0 C 80 % 1013,8 hPa 0,0 l/m 6,1 km/h (2 Bft) N-NO 0,00 h 0,000 mm 1,0 UV-I 125 W/m -5,0 C -3,0 C 8,9 km/h (2 Bft) 0,00 %
14.02.2015 13:00 -1,7 C 79 % 1013,1 hPa 0,0 l/m 2,0 km/h (1 Bft) O-NO 0,00 h 0,000 mm 1,0 UV-I 122 W/m -4,9 C -1,7 C 5,9 km/h (2 Bft) 0,00 %
14.02.2015 14:00 -1,2 C 75 % 1012,7 hPa 0,0 l/m 3,6 km/h (1 Bft) O 0,00 h 0,000 mm 1,3 UV-I 139 W/m -5,1 C -1,2 C 5,9 km/h (2 Bft) 0,00 %
14.02.2015 15:00 -1,0 C 74 % 1012,5 hPa 0,0 l/m 3,3 km/h (1 Bft) O 0,00 h 0,000 mm 1,0 UV-I 115 W/m -5,1 C -1,1 C 5,9 km/h (2 Bft) 0,00 %
14.02.2015 16:00 -1,2 C 76 % 1012,3 hPa 0,0 l/m 0,9 km/h (0 Bft) N 0,00 h 0,000 mm 1,0 UV-I 55 W/m -5,0 C -1,2 C 2,0 km/h (1 Bft) 0,00 %
14.02.2015 17:00 -2,3 C 78 % 1012,3 hPa 0,0 l/m 0,0 km/h (0 Bft) N 0,00 h 0,000 mm 0,0 UV-I 0 W/m -5,6 C -2,3 C 0,0 km/h (0 Bft) 0,00 %
14.02.2015 18:00 -3,4 C 80 % 1012,7 hPa 0,0 l/m 0,0 km/h (0 Bft) N 0,00 h 0,000 mm 0,0 UV-I 0 W/m -6,4 C -3,4 C 0,0 km/h (0 Bft) 0,00 %
14.02.2015 19:00 -4,0 C 81 % 1012,8 hPa 0,0 l/m 0,0 km/h (0 Bft) N 0,00 h 0,000 mm 0,0 UV-I 0 W/m -6,8 C -4,0 C 0,0 km/h (0 Bft) 0,00 %
14.02.2015 20:00 -4,6 C 81 % 1012,8 hPa 0,0 l/m 0,0 km/h (0 Bft) N 0,00 h 0,000 mm 0,0 UV-I 0 W/m -7,4 C -4,6 C 0,0 km/h (0 Bft) 0,00 %
14.02.2015 21:00 -5,2 C 81 % 1012,6 hPa 0,0 l/m 0,0 km/h (0 Bft) N 0,00 h 0,000 mm 0,0 UV-I 0 W/m -7,9 C -5,2 C 0,0 km/h (0 Bft) 0,00 %
14.02.2015 22:00 -6,3 C 81 % 1012,5 hPa 0,0 l/m 0,0 km/h (0 Bft) N 0,00 h 0,000 mm 0,0 UV-I 0 W/m -9,0 C -6,3 C 0,0 km/h (0 Bft) 0,00 %
14.02.2015 23:00 -5,7 C 81 % 1012,3 hPa 0,0 l/m 0,0 km/h (0 Bft) N 0,00 h 0,000 mm 0,0 UV-I 0 W/m -8,5 C -5,7 C 0,0 km/h (0 Bft) 0,00 %
15.02.2015 00:00 -4,6 C 80 % 1012,2 hPa 0,0 l/m 0,0 km/h (0 Bft) N 0,00 h 0,000 mm 0,0 UV-I 0 W/m -7,5 C -4,6 C 0,0 km/h (0 Bft) 0,00 %
15.02.2015 01:00 -4,0 C 80 % 1011,8 hPa 0,0 l/m 0,0 km/h (0 Bft) N 0,00 h 0,000 mm 0,0 UV-I 0 W/m -6,9 C -4,0 C 0,0 km/h (0 Bft) 0,00 %
15.02.2015 02:00 -3,3 C 79 % 1011,8 hPa 0,0 l/m 0,0 km/h (0 Bft) N 0,00 h 0,000 mm 0,0 UV-I 0 W/m -6,5 C -3,3 C 0,0 km/h (0 Bft) 0,00 %
15.02.2015 03:00 -2,5 C 83 % 1011,4 hPa 0,0 l/m 0,1 km/h (0 Bft) N 0,00 h 0,000 mm 0,0 UV-I 0 W/m -5,0 C -2,5 C 1,0 km/h (0 Bft) 0,00 %
15.02.2015 04:00 -1,6 C 84 % 1011,4 hPa 0,0 l/m 2,4 km/h (1 Bft) O 0,00 h 0,000 mm 0,0 UV-I 0 W/m -4,0 C -1,6 C 5,0 km/h (1 Bft) 0,00 %
15.02.2015 05:00 -2,2 C 84 % 1011,8 hPa 0,0 l/m 0,0 km/h (0 Bft) N 0,00 h 0,000 mm 0,0 UV-I 0 W/m -4,5 C -2,2 C 0,0 km/h (0 Bft) 0,00 %
15.02.2015 06:00 -2,6 C 80 % 1012,0 hPa 0,0 l/m 0,0 km/h (0 Bft) N 0,00 h 0,000 mm 0,0 UV-I 0 W/m -5,6 C -2,6 C 0,0 km/h (0 Bft) 0,00 %
15.02.2015 07:00 -2,1 C 84 % 1012,0 hPa 0,0 l/m 0,4 km/h (0 Bft) O-SO 0,00 h 0,000 mm 0,0 UV-I 4 W/m -4,4 C -2,1 C 1,0 km/h (0 Bft) 0,00 %
15.02.2015 08:00 -1,3 C 83 % 1012,3 hPa 0,0 l/m 3,0 km/h (1 Bft) O 0,00 h 0,000 mm 1,0 UV-I 38 W/m -3,8 C -1,5 C 5,0 km/h (1 Bft) 0,00 %
15.02.2015 09:00 -0,7 C 82 % 1012,6 hPa 0,0 l/m 2,9 km/h (1 Bft) O 0,00 h 0,000 mm 1,0 UV-I 85 W/m -3,4 C -0,7 C 5,0 km/h (1 Bft) 0,00 %
15.02.2015 10:00 -0,1 C 80 % 1012,7 hPa 0,0 l/m 3,6 km/h (1 Bft) O-SO 0,00 h 0,000 mm 1,0 UV-I 134 W/m -3,2 C -0,1 C 5,9 km/h (2 Bft) 0,00 %
15.02.2015 11:00 0,9 C 76 % 1011,5 hPa 0,0 l/m 6,0 km/h (2 Bft) O-SO 0,00 h 0,000 mm 2,0 UV-I 190 W/m -3,0 C -0,3 C 8,9 km/h (2 Bft) 0,00 %
15.02.2015 12:00 1,8 C 70 % 1010,9 hPa 0,0 l/m 12,5 km/h (3 Bft) N-NO 0,00 h 0,000 mm 2,0 UV-I 234 W/m -3,1 C -3,1 C 17,9 km/h (3 Bft) 0,00 %
15.02.2015 13:00 2,1 C 69 % 1010,7 hPa 0,0 l/m 6,4 km/h (2 Bft) O-SO 0,00 h 0,000 mm 2,0 UV-I 171 W/m -3,0 C 1,1 C 8,9 km/h (2 Bft) 0,00 %
15.02.2015 14:00 2,4 C 71 % 1010,5 hPa 0,0 l/m 6,0 km/h (2 Bft) O 0,00 h 0,000 mm 2,0 UV-I 127 W/m -2,3 C 1,4 C 11,9 km/h (2 Bft) 0,00 %
15.02.2015 15:00 2,9 C 74 % 1010,4 hPa 0,0 l/m 9,8 km/h (2 Bft) O-SO 0,00 h 0,000 mm 1,0 UV-I 111 W/m -1,4 C -0,4 C 12,9 km/h (3 Bft) 0,00 %
15.02.2015 16:00 3,2 C 74 % 1010,8 hPa 0,0 l/m 5,0 km/h (1 Bft) O 0,50 h 0,000 mm 1,0 UV-I 85 W/m -1,0 C 3,2 C 7,9 km/h (2 Bft) 0,00 %
15.02.2015 17:00 2,5 C 74 % 1011,7 hPa 0,0 l/m 1,0 km/h (0 Bft) O 0,00 h 0,000 mm 0,0 UV-I 5 W/m -1,7 C 2,5 C 3,0 km/h (1 Bft) 0,00 %
15.02.2015 18:00 1,3 C 77 % 1012,5 hPa 0,0 l/m 0,0 km/h (0 Bft) N 0,00 h 0,000 mm 0,0 UV-I 0 W/m -2,4 C 1,3 C 0,0 km/h (0 Bft) 0,00 %
15.02.2015 19:00 -0,2 C 81 % 1013,3 hPa 0,0 l/m 0,0 km/h (0 Bft) N 0,00 h 0,000 mm 0,0 UV-I 0 W/m -3,0 C -0,2 C 0,0 km/h (0 Bft) 0,00 %
15.02.2015 20:00 -0,8 C 83 % 1014,2 hPa 0,0 l/m 0,0 km/h (0 Bft) N 0,00 h 0,000 mm 0,0 UV-I 0 W/m -3,2 C -0,8 C 0,0 km/h (0 Bft) 0,00 %
15.02.2015 21:00 -0,6 C 84 % 1014,8 hPa 0,0 l/m 0,0 km/h (0 Bft) N 0,00 h 0,000 mm 0,0 UV-I 0 W/m -3,0 C -0,6 C 0,0 km/h (0 Bft) 0,00 %
15.02.2015 22:00 -0,9 C 84 % 1015,3 hPa 0,0 l/m 0,0 km/h (0 Bft) N 0,00 h 0,000 mm 0,0 UV-I 0 W/m -3,3 C -0,9 C 0,0 km/h (0 Bft) 0,00 %
15.02.2015 23:00 -2,5 C 82 % 1016,0 hPa 0,0 l/m 0,0 km/h (0 Bft) N 0,00 h 0,000 mm 0,0 UV-I 0 W/m -5,1 C -2,5 C 0,0 km/h (0 Bft) 0,00 %
Min-Datum _ 14.02.15 09.02.15 15.02.15 - 09.02.15 - - - - - 09.02.15 09.02.15 09.02.15 09.02.15
_ Min-Zeit 22:15 04:45 14:45 - 00:45 - - - - - 04:45 15:30 00:45 00:00
Minimum _ -6,5 C 47 % 1010,3 hPa - 0,0 km/h (0 Bft) - - - - - -12,3 C -13,5 C 0,0 km/h (0 Bft) 0,00 %
Max-Datum _ 10.02.15 10.02.15 10.02.15 09.02.15 09.02.15 - 10.02.15 09.02.15 10.02.15 10.02.15 15.02.15 10.02.15 09.02.15 09.02.15
_ Max-Zeit 13:45 23:30 21:15 00:00 15:30 - 11:00 00:00 11:00 12:15 16:00 13:45 15:30 00:00
Maximum _ 5,7 C 84 % 1031,2 hPa 0,0 l/m 27,4 km/h
W-SW (4 Bft)
- 0,25 h 0,000 mm 3,0 UV-I 339 W/m -1,0 C 5,7 C 36,0 km/h
W-SW (5 Bft)
0,00 %
Durchschnitt _ -0,7 C 75 % 1022,2 hPa #0,0 l/m 2,1 km/h (1 Bft) W-SW #2:15 h #0,000 mm 1,2 UV-I 90 W/m -4,6 C -1,1 C 3,8 km/h (1 Bft) 0,00 %